Weather Roundup
Issued by NWS Chicago, IL

Home | Current Version | Previous Version | Graphics & Text | Print | Product List | Glossary On
Versions: 1 2 3 4 5 6 7 8 9 10 11 12 13 14 15 16 17 18 19 20 21 22 23 24 25 26 27 28 29 30 31 32 33 34 35 36 37 38 39 40 41 42 43 44 45 46 47 48 49 50
000
NZUS59 KLOT 180408
HRRLOT

CHICAGO AREA WEATHER ROUNDUP
NATIONAL WEATHER SERVICE CHICAGO/ROMEOVILLE IL
1100 PM CDT FRI APR 17 2015

NOTE: "FAIR" INDICATES FEW OR NO CLOUDS BELOW 12,000 FEET WITH NO
SIGNIFICANT WEATHER AND/OR OBSTRUCTIONS TO VISIBILITY.

* THESE STATIONS ARE NOT UNDER NWS QUALITY CONTROL. THEY ALSO MAY NOT
  REPORT WEATHER SUCH AS PRECIPITATION OR FOG.

ILZ005-006-012>014-019>023-180500-
NORTHEAST ILLINOIS

CITY           SKY/WX    TMP DP  RH WIND       PRES   REMARKS
OHARE          MOCLDY    63  46  54 CALM      30.00F
MIDWAY         MOCLDY    67  45  45 CALM      30.01S
AURORA         MOCLDY    56  48  74 N5        30.01F
LANSING*       CLEAR     59  46  61 CALM      30.01F
JOLIET*        CLOUDY    59  52  76 CALM      30.01S
WAUKEGAN         N/A     48  43  82 CALM      30.00F HAZE
DUPAGE AIRPORT MOCLDY    59  50  72 S3        30.00F
WHEELING       CLOUDY    62  46  55 CALM      30.01F
KANKAKEE*      CLEAR     62  49  63 S6        30.03F
MORRIS*        CLOUDY    63  47  57 CALM      29.99F
LEWIS AIRPORT* CLEAR     64  47  53 S5        30.01S
NORTHERLY IS     N/A     58  43  57 S1          N/A
$$

WIZ051-052-058>065-066-070>072-180500-
SOUTHEAST WISCONSIN

CITY           SKY/WX    TMP DP  RH WIND       PRES   REMARKS
MILWAUKEE      PTCLDY    51  40  65 S6        30.01S
KENOSHA*       CLEAR     49  43  80 S3        30.00F
RACINE*        CLEAR     51  42  71 CALM      30.01F HAZE
BURLINGTON     CLEAR     48  43  83 CALM      30.00F
WAUKESHA       CLEAR     54  41  62 CALM      30.01S
WEST BEND      PTCLDY    57  37  47 CALM      30.00S
$$

INZ001>003-010>013-019-020-180500-
NORTHWEST INDIANA

CITY           SKY/WX    TMP DP  RH WIND       PRES   REMARKS
GARY*          CLEAR     60  44  56 CALM      30.02S
MICHIGAN CITY* NOT AVBL
RENSSELAER*    NOT AVBL
VALPARAISO     PTCLDY    64  44  48 SE5       30.03S
$$

LMZ740>746-180500-
SOUTHERN LAKE MICHIGAN

STATION/POSITION TIME  SKY/WX   TEMP WIND        PRES    VSBY
                                AIR  DIR/SP/G
                 (UTC)          (F)  (DEG/KT/KT) (MB)    (MI)
HARRISON CRIB    0300            60  180/  9/ 10   N/A
BURNHAM HARBOR   0400            58   CALM  /  3   N/A
CALUMET HARBOR   0300            59   CALM  /  1   N/A
BURNS HARBOR     0300            69  160/  3/  9 1016.9R
MICHIGAN CITY    0300            67  120/  3/  4   N/A
$$

ABBREVIATIONS USED IN REMARKS
   TC - TEMPERATURE IN CELSIUS
  WCI - WIND CHILL INDEX
   HX - HEAT INDEX
  VSB - VISIBILITY
$$



USA.gov is the U.S. government's official web portal to all federal, state and local government web resources and services.